Gastonia, NC

2:44 PM EDT on March 27, 2017 (GMT -0400)
Gastonia Municipal

Weather History for KAKH - October, 2013

Change the Weather History Date:

Wednesday, October 30, 2013

  Actual Average (KCLT) Record (KCLT)
Temperature  
Mean Temperature 64 °F -  
Max Temperature 78 °F 66 °F 84 °F (1950)
Min Temperature 51 °F 46 °F 26 °F (1952)
Growing Degree Days 14 (Base 50)    
Moisture  
Dew Point 54 °F    
Average Humidity 77    
Maximum Humidity 96    
Minimum Humidity 45    
Precipitation  
Precipitation 0.00 in - - ()
Sea Level Pressure  
Sea Level Pressure 30.23 in    
Wind  
Wind Speed 1 mph (WSW)    
Max Wind Speed 9 mph    
Max Gust Speed 18 mph    
Visibility 8 miles    
Events      
Averages and records for this station are not official NWS values.
T = Trace of Precipitation, MM = Missing Value Source: NWS Daily Summary

Daily Weather History Graph

Daily Weather History Graph

Search for Another Location

Airport or City:

Trip Planner

Search our weather history database for the weather conditions in past years. The results will help you decide how hot, cold, wet, or windy it might be!

Date:

Astronomy

Oct. 30, 2013 Rise Set
Actual Time 7:44 AM EDT 6:31 PM EDT
Civil Twilight 7:18 AM EDT 6:57 PM EDT
Nautical Twilight 6:48 AM EDT 7:27 PM EDT
Astronomical Twilight 6:18 AM EDT 7:57 PM EDT
Moon 3:40 AM EDT (10/30) 4:08 PM EDT (10/30)
Length of Visible Light 11h 39m
Length of Day
10h 47m
Waning Crescent, 17% of the Moon is Illuminated
Oct 30
Waning Crescent
Nov 3
New
Nov 10
First Quarter
Nov 17
Full
Nov 25
Last Quarter

Hourly Weather History & Observations

Time (EDT) Temp. Dew Point Humidity Pressure Visibility Wind Dir Wind Speed Gust Speed Precip Events Conditions
12:54 AM 53.1 °F 51.1 °F 93% 30.27 in 9.0 mi Calm Calm - N/A   Partly Cloudy
1:54 AM 53.1 °F 51.1 °F 93% 30.26 in 8.0 mi Calm Calm - N/A   Clear
2:54 AM 51.1 °F 50.0 °F 96% 30.26 in 5.0 mi Calm Calm - N/A   Clear
3:54 AM 51.1 °F 50.0 °F 96% 30.25 in 7.0 mi Calm Calm - N/A   Clear
4:54 AM 51.1 °F 50.0 °F 96% 30.25 in 7.0 mi Calm Calm - N/A   Clear
5:54 AM 51.1 °F 50.0 °F 96% 30.27 in 6.0 mi Calm Calm - N/A   Mostly Cloudy
6:54 AM 53.1 °F 51.1 °F 93% 30.27 in 8.0 mi Calm Calm - N/A   Overcast
7:54 AM 55.0 °F 52.0 °F 89% 30.28 in 9.0 mi Calm Calm - N/A   Overcast
8:54 AM 55.9 °F 54.0 °F 93% 30.29 in 8.0 mi Calm Calm - N/A   Overcast
9:54 AM 59.0 °F 55.0 °F 87% 30.30 in 9.0 mi Variable 3.5 mph - N/A   Overcast
10:54 AM 66.9 °F 55.0 °F 66% 30.29 in 10.0 mi WSW 8.1 mph - N/A   Clear
11:54 AM 71.1 °F 54.0 °F 55% 30.27 in 10.0 mi WSW 9.2 mph 18.4 mph N/A   Partly Cloudy
12:54 PM 73.9 °F 55.0 °F 52% 30.25 in 10.0 mi WSW 6.9 mph - N/A   Mostly Cloudy
1:54 PM 75.9 °F 55.0 °F 48% 30.21 in 10.0 mi Variable 5.8 mph - N/A   Scattered Clouds
2:54 PM 78.1 °F 55.0 °F 45% 30.18 in 10.0 mi Variable 4.6 mph - N/A   Clear
3:54 PM 77.0 °F 55.0 °F 47% 30.17 in 10.0 mi Variable 3.5 mph - N/A   Clear
4:54 PM 75.9 °F 55.0 °F 48% 30.17 in 10.0 mi Variable 4.6 mph - N/A   Clear
5:54 PM 73.0 °F 55.9 °F 55% 30.17 in 4.0 mi Calm Calm - N/A   Haze
6:02 PM 71.6 °F 57.2 °F 60% 30.17 in 2.5 mi Calm Calm - N/A   Haze
6:09 PM 69.8 °F 57.2 °F 64% 30.18 in 7.0 mi Calm Calm - N/A   Clear
6:54 PM 64.9 °F 59.0 °F 81% 30.19 in 10.0 mi Calm Calm - N/A   Clear
7:54 PM 63.0 °F 57.0 °F 81% 30.19 in 10.0 mi Calm Calm - N/A   Clear
8:54 PM 60.1 °F 57.0 °F 90% 30.19 in 10.0 mi Calm Calm - N/A   Clear
9:54 PM 60.1 °F 57.0 °F 90% 30.20 in 10.0 mi Calm Calm - N/A   Clear
10:54 PM 57.9 °F 55.9 °F 93% 30.20 in 8.0 mi Calm Calm - N/A   Clear
11:54 PM 57.0 °F 55.0 °F 93% 30.19 in 9.0 mi Calm Calm - N/A   Clear